Theta_e
308 307 305 305 307 308 307 305 304 301 300 300 300 299 299 298 298 300 300 300 300 301 304 301 306 305 304 304 304 313 321 328 330 327 329 320 320 314 312 318 313 312 313 306 305
306 308 310 311 312 313 310 308 306 302 300 300 301 299 298 298 301 303 300 299 302 303 300 305 305 302 301 303 304 315 318 324 322 322 321 314 312 315 311 310 311 308 304 303 303
312 313 313 313 313 314 314 305 299 299 300 300 300 300 298 298 299 298 301 301 302 301 300 306 304 302 302 303 305 310 318 316 317 312 310 310 310 309 308 311 310 311 308 300 300
313 313 313 313 313 315 315 307 302 300 298 300 302 299 299 300 297 300 299 299 300 300 301 305 305 304 303 306 308 312 313 316 317 309 307 308 308 308 306 312 310 307 304 300 301
313 313 313 313 313 314 314 310 305 304 302 301 303 300 300 297 296 299 299 299 300 300 303 304 305 305 310 310 311 313 312 311 311 307 305 305 306 307 306 306 305 304 302 301 302
313 313 312 312 312 313 313 313 309 305 305 304 306 302 297 294 297 298 298 299 300 301 302 303 304 306 307 307 310 308 309 309 307 306 303 304 305 303 308 307 305 302 302 301 302
311 311 310 310 312 312 312 312 308 302 304 304 305 304 297 294 297 297 298 299 300 300 300 302 303 303 306 309 304 304 307 307 307 307 305 301 307 303 308 307 305 304 302 301 301
308 308 308 307 310 311 312 312 308 298 297 299 305 303 293 296 297 297 297 299 299 299 300 301 301 302 304 304 304 305 305 310 309 304 304 306 310 309 305 303 306 305 299 299 300
303 304 305 305 307 310 311 311 307 298 299 301 303 296 294 296 296 297 297 298 299 298 299 299 301 302 302 306 308 305 308 307 308 303 302 304 308 309 300 302 301 300 300 300 300
301 301 302 303 303 308 310 311 303 299 300 304 296 295 296 296 296 297 297 299 298 297 298 299 298 300 300 306 307 308 305 304 306 305 301 301 302 305 305 301 299 298 296 296 300
297 298 299 299 301 305 308 308 306 305 296 296 297 295 296 296 297 296 297 297 297 297 297 298 299 299 301 305 302 303 304 305 304 302 302 301 302 303 304 300 299 300 299 297 298
297 297 297 297 297 301 308 302 298 298 302 301 301 297 297 297 296 294 297 297 296 296 295 296 297 298 299 301 302 303 303 303 301 300 300 299 299 300 300 301 300 302 301 300 300
297 297 297 297 299 303 300 301 300 299 300 304 301 302 299 296 297 296 296 295 296 294 294 295 296 295 298 297 299 298 303 302 301 299 298 298 300 299 299 299 300 300 300 301 300
296 296 296 296 297 294 302 299 299 299 309 313 302 299 295 295 296 295 296 296 295 296 295 295 294 297 295 296 297 299 296 298 298 299 297 298 298 300 301 302 299 299 299 299 299
296 297 297 295 294 293 297 297 299 301 313 305 297 296 295 297 296 296 296 297 296 295 295 297 295 296 297 297 295 296 296 296 299 298 299 298 298 300 300 301 301 301 299 297 297
295 295 295 296 294 293 295 293 300 309 311 305 295 295 295 296 296 295 296 297 296 296 296 296 295 295 296 296 296 296 299 299 297 296 296 296 296 301 298 299 302 304 303 303 300
293 294 292 292 293 293 293 296 306 305 300 302 296 296 296 295 296 296 297 297 296 297 298 297 296 295 295 296 297 297 297 298 295 292 299 297 295 301 299 300 299 300 300 300 299
292 291 290 290 292 293 292 300 303 298 301 298 296 296 297 295 295 296 296 297 296 296 296 298 299 296 294 296 298 297 297 299 297 298 299 298 299 299 298 298 298 299 299 298 299
290 290 291 291 293 292 292 297 297 298 302 305 297 297 290 296 296 296 295 295 297 296 300 297 298 295 295 295 297 298 299 297 299 293 300 302 301 300 301 301 300 300 299 299 299
289 291 290 291 293 293 293 294 293 297 299 300 303 300 293 293 296 296 296 296 297 296 298 300 300 295 294 294 294 296 297 299 296 295 298 300 300 301 302 301 303 301 300 299 298
289 289 289 291 290 290 291 294 292 295 293 297 301 304 306 302 297 296 299 298 296 296 298 300 303 297 295 295 297 297 298 296 297 299 301 299 300 297 300 300 300 301 300 299 298
288 285 288 289 285 277 281 291 292 292 292 292 298 300 301 303 306 303 301 299 296 297 298 299 305 302 297 294 293 294 296 297 300 298 299 302 302 301 301 299 301 300 298 298 298
285 283 289 290 283 287 283 289 291 292 291 292 294 295 293 296 302 305 304 303 300 300 301 301 302 301 303 298 292 293 295 297 298 299 300 301 302 299 299 299 299 298 296 296 296
288 284 281 282 286 288 286 285 288 291 292 291 291 291 292 293 298 302 302 302 298 300 305 304 306 299 307 305 298 295 295 297 300 301 302 301 302 301 298 298 297 296 294 295 295
286 284 282 286 281 279 285 287 288 288 291 290 290 291 290 290 293 292 292 293 297 300 302 306 310 307 307 304 299 301 296 298 299 300 301 301 299 300 298 298 295 295 295 295 294
288 288 287 280 283 287 282 285 288 288 288 288 290 291 290 289 291 290 290 291 293 295 295 301 308 306 309 308 306 305 298 298 299 299 300 300 299 298 298 296 295 292 292 292 292
288 288 288 287 282 282 286 287 288 288 288 289 289 290 289 289 290 289 290 290 292 292 294 298 303 306 309 307 309 309 307 304 301 303 302 303 304 299 297 295 290 290 290 289 288
Wind_Speed
17 18 18 18 20 20 19 18 17 15 15 17 16 15 16 15 18 11 7 8 7 12 5 3 2 2 1 1 2 3 2 8 8 8 7 2 4 2 1 3 4 7 3 1 16
20 21 21 22 23 23 22 20 20 19 17 17 16 15 14 14 17 12 13 9 9 7 4 6 4 5 1 2 3 4 5 7 5 6 5 2 2 2 2 4 5 3 2 4 27
22 22 23 24 25 25 24 22 22 20 19 18 16 15 11 11 5 5 1 10 10 8 4 4 8 5 2 2 5 6 7 5 5 5 4 3 3 2 4 6 9 10 6 8 8
23 24 24 25 26 26 27 23 23 22 21 17 14 12 6 3 7 2 5 5 8 8 7 5 3 6 5 6 5 4 10 8 4 5 5 5 2 5 8 10 4 8 5 10 14
25 25 26 26 27 27 27 28 26 27 24 18 12 7 1 2 9 5 4 3 6 7 8 6 4 5 5 5 3 6 3 4 6 7 6 1 9 9 8 13 9 4 8 12 16
23 24 27 29 28 29 29 29 29 30 21 15 9 3 3 5 4 5 5 5 6 7 6 7 6 4 4 4 6 2 4 7 5 6 5 6 4 5 18 11 12 10 12 13 16
24 26 29 30 29 30 31 31 31 23 15 11 5 5 2 14 5 5 5 5 8 8 3 7 3 4 1 4 4 3 6 7 7 5 7 6 9 11 28 5 12 14 13 12 18
27 29 31 33 31 31 32 31 29 16 9 3 6 5 7 4 6 10 8 5 6 8 6 3 5 3 3 4 3 3 2 3 2 7 3 7 10 15 6 8 16 11 8 10 13
30 30 31 32 34 33 34 29 20 10 4 4 4 2 9 4 4 8 8 4 6 4 6 3 3 4 1 3 4 2 6 6 7 9 4 7 6 7 2 4 10 10 10 10 11
31 32 33 34 34 32 35 29 8 4 1 3 2 2 4 5 4 4 8 8 2 4 3 4 2 3 1 4 10 7 6 6 6 2 2 5 16 20 10 5 10 10 10 10 12
31 33 34 36 36 33 31 11 4 2 2 7 5 6 3 3 6 6 7 8 3 2 6 3 4 10 15 16 2 2 4 6 3 1 4 8 15 18 20 8 13 16 15 14 19
31 32 35 37 40 27 11 4 2 3 11 11 21 10 14 8 5 7 13 8 7 8 6 2 13 10 5 6 8 7 5 13 6 3 5 8 21 18 20 16 18 23 21 21 16
30 32 35 40 27 12 22 10 10 6 5 7 8 7 5 13 10 9 14 6 6 8 10 9 5 6 10 6 6 5 13 5 8 5 4 5 20 10 7 10 16 18 23 16 19
30 31 32 37 9 32 5 22 15 6 5 8 5 6 3 5 5 3 12 7 5 12 8 9 5 6 6 6 11 15 8 7 5 2 5 1 10 7 7 18 8 13 15 17 15
31 31 27 23 15 14 12 25 16 5 7 3 4 2 3 5 3 0 4 2 7 8 8 8 9 6 9 8 8 6 4 6 4 4 2 3 3 5 2 9 9 12 10 9 10
31 30 30 18 16 17 18 30 9 3 13 6 5 6 4 3 4 3 3 1 2 4 4 4 1 5 7 3 3 8 6 6 4 2 3 9 7 27 7 8 5 4 4 4 6
31 28 27 22 11 24 23 9 5 7 4 7 6 6 3 6 5 6 7 7 7 5 11 2 5 3 3 6 2 2 7 1 3 2 8 2 5 17 11 12 8 10 10 7 5
32 31 27 25 22 18 8 5 13 14 17 6 4 3 7 8 4 7 7 6 12 3 3 9 6 12 8 8 9 8 8 6 9 5 4 3 9 7 9 11 10 7 7 8 6
35 25 20 16 12 3 3 12 8 3 5 7 1 6 4 3 5 5 8 6 9 16 11 7 6 1 3 2 5 7 9 5 6 2 3 5 8 9 14 14 9 8 6 7 3
29 14 13 15 10 2 4 18 7 15 16 9 9 6 6 7 10 9 10 6 6 18 2 6 1 2 1 1 1 4 3 3 2 3 4 6 6 7 11 11 4 7 6 5 4
13 5 8 13 18 1 4 8 5 16 18 13 14 13 14 5 5 4 6 5 6 4 4 4 4 1 2 7 9 4 4 0 3 5 6 2 6 7 10 6 5 7 5 3 4
4 4 17 22 3 2 1 8 19 16 17 9 12 15 18 19 11 4 5 5 4 5 9 8 4 6 9 1 1 1 4 7 5 6 3 3 8 1 4 6 4 7 8 6 5
2 3 8 6 2 3 5 6 12 7 9 7 6 7 20 16 13 12 10 5 5 4 7 7 4 3 2 2 2 5 6 4 1 2 7 6 9 2 3 7 7 8 10 9 9
2 3 4 4 1 2 5 7 8 9 6 2 6 6 16 15 10 9 12 9 14 6 12 8 6 8 15 8 6 7 8 15 6 2 7 7 9 6 9 8 8 9 11 13 14
1 3 3 4 5 3 2 7 17 11 3 4 3 6 8 8 12 13 14 16 11 14 7 5 7 10 17 13 4 7 7 16 17 23 9 23 10 2 3 7 8 10 13 15 16
3 4 2 3 3 8 5 5 13 9 3 6 3 9 7 3 5 14 12 11 9 9 13 6 8 8 7 14 13 14 4 14 22 22 18 22 21 3 6 7 12 12 12 12 11
6 6 4 7 3 0 4 8 16 15 10 7 7 14 13 11 6 12 12 14 14 11 11 6 4 5 14 7 13 15 21 17 8 7 13 15 18 5 7 11 12 12 12 12 12
Wind_Direction
11 6 7 6 1 353 344 337 331 324 319 318 315 317 317 315 312 307 245 238 207 220 218 212 187 149 151 254 220 141 191 239 231 180 249 190 208 174 92 221 219 202 197 46 156
17 10 7 3 359 351 345 338 328 319 316 313 315 318 321 324 315 253 256 224 207 188 211 166 149 134 107 246 209 180 186 231 225 203 223 244 212 251 227 215 251 267 200 127 159
13 8 4 360 356 349 342 339 334 322 316 312 313 318 321 333 303 244 226 207 204 207 223 172 131 130 220 187 219 194 207 219 239 228 205 225 264 232 196 230 219 208 199 155 164
6 2 356 353 349 343 338 337 333 326 316 310 306 313 325 343 279 204 142 172 211 219 173 151 133 148 203 208 210 234 240 213 232 204 176 217 212 243 198 235 200 231 180 162 180
354 352 349 347 346 341 339 335 334 328 317 306 300 305 32 250 250 217 199 202 205 192 178 158 167 175 203 207 193 223 273 254 266 238 237 315 237 237 251 239 235 228 176 190 192
349 345 344 344 344 340 337 335 331 324 306 295 280 204 166 243 236 208 219 200 199 188 193 183 203 206 263 257 182 253 275 269 267 262 251 228 239 135 253 243 236 199 208 200 201
342 340 348 346 342 340 337 334 332 327 303 281 237 199 199 238 213 223 220 211 204 195 204 214 217 178 178 274 312 304 311 311 235 219 232 168 278 226 252 207 232 223 220 205 212
342 339 340 341 340 338 336 334 332 331 322 251 166 167 249 248 245 232 225 220 205 209 210 228 200 222 203 303 322 285 218 277 197 143 242 142 265 271 307 215 236 245 232 216 222
355 348 341 339 336 336 336 332 322 323 353 145 163 158 263 286 236 219 203 202 175 184 204 164 148 203 165 154 323 245 254 231 313 196 141 188 252 245 138 208 269 263 250 236 238
354 350 346 340 335 329 337 331 300 278 85 174 318 337 267 245 191 183 182 178 175 134 111 152 91 170 98 142 230 201 228 238 234 191 199 253 259 272 268 235 258 256 254 245 236
346 345 345 340 334 328 334 341 4 327 178 215 208 246 277 187 176 190 174 147 123 129 179 209 176 201 200 210 68 137 217 247 249 150 238 239 260 262 271 242 258 258 251 241 237
346 345 342 338 331 331 352 2 296 291 298 232 248 252 242 184 214 221 167 163 164 196 140 109 237 220 161 192 229 251 276 264 280 226 193 282 273 264 263 253 235 247 251 245 243
343 344 344 340 340 13 336 336 332 334 261 274 219 230 205 172 219 204 161 155 175 170 193 190 209 153 173 185 177 222 229 233 233 328 233 327 284 243 269 248 251 252 253 253 239
338 339 342 345 23 339 4 349 336 332 294 259 241 276 107 149 242 168 178 151 192 199 169 236 213 170 162 201 177 249 202 196 227 126 253 36 287 240 265 268 219 244 243 246 235
338 338 336 345 327 323 330 343 327 305 288 267 201 159 153 183 119 355 190 50 179 175 143 237 169 175 202 209 158 229 127 169 156 178 349 198 243 259 84 274 249 244 252 244 237
345 343 342 336 324 308 314 320 314 226 239 273 163 177 142 212 177 133 147 23 156 145 253 248 357 182 193 83 148 144 88 57 42 99 279 181 166 280 211 241 286 267 321 309 318
339 339 331 318 287 301 313 319 218 208 302 253 207 174 206 188 206 175 164 177 170 140 226 131 214 181 150 97 57 153 116 297 332 1 236 209 174 249 305 270 223 258 284 271 322
345 332 326 316 311 303 308 228 221 228 219 65 82 94 188 163 235 180 153 192 230 149 131 186 267 168 176 194 169 195 173 168 200 202 251 135 235 248 231 277 251 259 265 306 318
340 338 307 328 354 301 169 220 219 295 281 342 181 199 273 249 180 147 208 221 207 188 185 163 262 49 16 137 145 186 216 153 104 56 38 227 280 282 261 277 293 254 255 280 331
343 329 297 337 350 51 236 236 274 330 341 353 319 230 227 228 174 181 175 214 227 195 193 201 322 19 6 269 11 183 180 105 354 164 237 261 268 234 295 268 348 346 273 286 306
354 345 291 332 330 98 271 289 285 342 2 340 312 293 285 303 216 223 222 263 212 153 177 152 155 66 78 214 180 157 199 151 135 171 185 252 258 221 241 294 304 334 331 279 276
13 328 301 323 12 337 314 320 303 307 316 307 285 290 293 301 270 278 266 234 116 141 171 217 182 178 194 161 338 235 241 181 149 223 243 145 259 264 245 349 140 44 29 13 21
295 250 309 339 285 301 282 284 294 316 335 314 298 328 332 290 274 251 253 253 169 198 200 186 231 137 334 347 22 210 192 217 121 91 205 159 259 349 46 48 37 61 12 10 21
301 323 315 25 234 242 324 295 306 287 291 258 288 6 352 329 323 282 291 328 332 235 252 172 205 206 219 217 131 184 195 202 178 159 222 223 239 9 48 40 17 19 10 19 24
283 264 222 285 302 299 133 276 299 316 227 304 305 50 19 334 326 2 347 326 326 350 283 225 247 219 235 244 171 195 170 193 205 224 212 249 251 240 17 43 27 38 25 27 18
302 307 271 271 289 292 311 288 298 307 2 294 260 308 311 228 272 303 319 326 292 327 340 305 246 214 229 242 240 237 189 194 201 218 236 257 266 231 268 74 35 26 20 27 20
296 272 273 284 292 102 267 279 292 298 297 252 306 306 301 294 275 265 270 265 244 266 294 287 311 236 246 227 243 235 221 205 207 207 202 226 258 7 50 60 41 30 29 16 9